Theta_e
304 304 304 304 304 304 304 305 305 304 304 302 299 302 296 294 290 303 304 305 301 294 287 290 287 286 289 293 291 292 290 288 291 289 292 289 292 292 292 292 292 293 290 289 290 291 289 290 289 291 292 292 295 296 297 298 297 298 296 297 298 297 292 290 290 294 296 298 299 300 300 299 296 297 298 297 294 295 294 293 295 291 292 290 291 287 294
303 304 304 304 304 304 304 304 305 304 304 302 301 297 294 294 294 296 303 304 300 290 282 283 285 286 289 288 288 292 290 290 289 289 291 290 290 291 292 294 296 292 296 292 289 293 286 291 291 290 293 292 297 297 297 298 296 296 296 294 299 290 294 292 287 287 289 292 295 295 298 298 296 295 297 297 298 297 298 297 300 290 293 292 289 284 292
303 304 304 304 304 304 304 304 305 304 304 305 302 295 296 293 296 296 298 300 296 286 289 286 285 285 285 285 284 287 290 293 292 291 290 293 293 293 292 294 296 294 295 293 293 293 291 289 293 293 293 294 295 297 297 298 297 298 301 301 300 294 293 291 285 281 279 279 281 284 288 292 295 297 296 297 296 297 295 290 292 287 292 294 290 289 302
303 303 303 303 303 304 304 304 304 304 304 304 302 299 294 290 284 293 294 295 293 291 293 288 285 284 285 284 287 287 285 291 293 293 292 294 294 295 295 296 297 294 293 291 291 290 294 291 290 292 292 293 293 296 297 297 298 300 305 302 300 294 297 295 293 289 287 289 292 296 296 294 291 294 295 296 297 297 298 296 290 288 291 290 294 295 300
302 303 303 303 303 303 304 304 303 303 304 303 302 299 295 295 287 288 286 293 291 288 290 288 288 285 288 283 288 285 288 291 292 294 291 295 294 295 295 295 294 293 292 290 290 291 291 293 293 292 293 294 294 297 297 297 299 305 301 303 298 296 292 294 296 296 295 296 295 297 296 293 294 294 294 296 296 297 296 291 289 296 293 288 296 297 298
302 302 303 303 303 303 303 303 304 303 303 304 302 293 296 287 291 292 294 286 286 287 288 291 288 290 288 286 289 287 289 291 288 293 294 294 296 292 294 295 295 295 292 292 288 290 291 292 290 294 295 293 294 293 296 296 302 299 298 301 298 294 289 295 296 296 298 299 296 297 296 295 295 295 296 295 296 296 294 295 296 298 291 289 298 300 297
302 302 302 302 303 303 303 303 303 303 303 304 301 291 296 295 294 293 295 287 290 289 290 292 291 291 292 288 290 289 290 289 292 291 292 293 293 295 288 292 294 296 297 294 290 292 288 287 294 295 293 293 292 291 293 296 299 297 297 299 300 296 291 295 295 295 297 298 298 299 295 296 295 295 295 296 296 296 297 297 297 299 297 297 300 300 298
301 301 301 302 303 303 303 303 303 303 302 304 298 294 289 288 287 287 292 291 289 291 292 292 293 291 294 288 291 291 291 290 292 293 292 289 291 295 292 290 296 296 296 296 292 296 298 294 291 298 295 294 295 293 294 293 297 297 296 297 301 296 291 295 296 294 294 298 298 299 298 297 294 295 296 296 296 297 297 298 298 299 299 300 300 299 299
301 301 302 302 302 302 303 303 303 302 303 299 294 292 294 292 294 293 287 286 291 293 293 292 291 290 292 290 292 293 293 292 294 293 295 293 291 291 289 290 296 298 298 297 298 300 301 300 298 300 298 292 297 294 294 297 294 296 297 297 299 297 293 296 295 289 291 296 296 297 299 298 295 294 296 297 297 295 297 294 299 298 297 299 298 297 297
301 301 301 302 302 302 302 302 303 302 303 299 297 292 299 296 298 296 291 285 291 290 293 294 293 288 292 292 293 292 293 295 295 289 294 296 294 292 289 294 297 297 297 297 300 303 304 304 305 306 303 303 299 301 299 298 297 296 297 298 295 294 294 290 291 287 288 297 297 297 298 297 292 292 297 298 298 298 299 301 303 302 301 296 293 295 302
300 300 301 301 301 302 302 302 303 303 303 297 295 295 298 294 292 292 291 284 290 292 291 292 290 292 294 295 294 296 295 296 295 290 289 295 295 293 295 295 294 296 297 300 305 306 307 308 306 304 304 304 302 303 299 299 299 298 297 296 296 295 296 291 295 286 288 295 297 297 292 285 287 301 304 303 299 300 299 299 301 303 302 300 303 303 307
300 301 301 301 301 301 302 302 302 302 301 302 301 298 300 300 297 295 288 285 287 293 291 289 290 292 293 296 296 295 295 295 295 297 293 294 296 297 294 293 294 292 302 307 307 307 308 307 304 304 303 304 303 302 300 298 298 299 300 297 296 295 294 292 295 289 288 294 294 288 283 287 299 303 304 303 304 302 300 302 304 303 304 307 305 309 311
299 300 300 301 301 301 301 301 302 302 302 302 302 297 301 303 297 294 291 287 287 290 289 291 296 296 298 297 296 297 298 298 299 298 297 296 294 294 298 299 300 300 306 306 307 306 302 298 298 298 299 301 302 302 300 299 299 300 300 299 298 293 292 293 291 291 292 290 288 280 284 297 301 302 302 304 302 303 302 301 303 305 306 306 303 306 310
299 299 300 300 300 301 301 301 302 302 302 302 300 301 303 302 296 295 292 288 288 293 293 295 297 297 297 296 296 298 299 298 299 299 296 298 296 296 300 301 303 306 306 307 306 304 298 297 291 293 293 296 297 297 300 301 301 300 301 300 299 298 296 294 290 295 287 288 288 287 294 296 300 298 301 300 301 300 297 290 296 306 307 306 305 309 311
299 299 299 300 300 300 301 301 301 302 302 302 302 302 303 303 301 296 297 293 288 292 296 289 293 295 296 297 297 296 297 298 298 297 300 298 294 300 303 304 307 306 307 306 301 301 295 293 288 287 288 288 285 288 299 295 299 303 301 301 301 300 294 295 291 288 292 288 287 287 287 283 291 301 309 308 310 309 309 303 299 308 308 308 308 308 310
299 299 299 299 300 300 300 301 301 301 302 302 302 301 303 304 304 301 298 294 290 287 293 298 298 296 295 297 299 297 295 294 297 300 300 301 300 304 305 307 307 309 307 303 302 296 294 290 286 287 285 288 294 292 289 296 294 298 302 302 299 301 300 297 291 290 289 288 286 285 283 287 297 303 307 309 308 310 310 300 293 307 309 308 309 309 310
298 299 299 299 300 300 300 301 301 301 302 302 300 300 301 306 303 300 296 296 294 289 298 300 300 299 298 298 300 298 298 295 298 294 292 295 298 300 303 307 310 308 304 304 301 296 293 291 293 290 293 298 291 289 297 295 292 293 298 299 297 297 294 294 291 288 289 288 286 285 289 288 300 306 306 307 308 308 306 288 290 309 309 309 309 309 310
298 298 298 299 299 299 300 301 301 301 301 302 301 300 301 306 306 303 299 295 291 293 300 302 299 297 297 297 297 300 302 301 300 301 299 300 301 300 302 303 303 306 307 298 298 294 292 292 289 289 289 298 298 298 287 294 290 291 290 291 290 290 291 292 288 289 289 287 288 290 290 298 304 305 307 307 308 306 291 286 295 309 310 310 311 311 312
298 298 298 299 299 299 300 300 301 301 301 301 302 301 302 305 306 304 299 296 295 291 301 303 302 298 301 302 300 301 301 301 301 298 296 296 299 302 302 301 303 297 303 297 299 293 292 291 298 296 292 293 299 290 297 292 291 298 296 290 291 290 291 291 291 289 289 289 287 288 291 303 306 307 307 308 302 289 289 303 304 310 310 311 312 312 313
297 298 298 298 299 299 300 300 301 301 301 301 301 298 301 305 306 303 298 293 296 295 299 301 301 298 298 295 299 300 302 302 302 300 297 295 303 302 301 296 303 305 301 302 292 293 293 291 294 298 295 295 297 299 294 293 300 296 296 297 292 292 288 288 289 291 292 290 287 286 284 293 307 307 304 305 295 294 304 308 309 310 312 311 312 313 313
297 298 298 298 299 299 300 300 301 301 301 301 301 299 298 305 305 305 303 299 294 291 299 306 304 303 303 302 302 302 301 299 301 300 301 302 305 302 292 291 298 298 293 296 292 292 295 293 296 294 298 299 298 299 291 292 296 301 300 299 297 301 289 289 290 294 288 287 285 286 294 304 308 306 297 304 306 307 310 310 307 311 312 311 311 313 313
297 297 298 298 299 299 300 300 300 301 301 301 301 300 298 304 305 304 304 302 295 293 299 304 305 303 305 306 306 306 305 304 306 307 303 300 307 302 300 302 301 301 301 301 300 297 301 298 301 295 294 295 299 294 297 291 290 298 302 300 291 301 297 298 291 298 293 290 294 303 303 307 309 308 305 307 308 308 309 311 310 310 311 313 312 312 313
297 297 298 298 298 299 299 300 300 300 301 301 301 300 297 300 303 305 303 297 299 300 302 303 305 305 306 307 308 309 309 310 309 308 308 303 300 305 304 303 302 305 305 304 300 300 300 300 295 300 297 298 295 294 296 296 293 296 293 301 301 302 304 306 302 299 303 303 304 306 304 305 307 306 306 305 307 308 309 311 311 312 312 313 312 313 313
297 297 297 298 298 299 299 300 300 300 300 301 300 299 299 301 302 302 301 301 296 296 303 306 304 297 300 301 304 311 309 309 309 311 313 311 300 299 307 305 305 306 305 307 307 302 301 300 301 302 294 300 300 295 291 291 291 300 297 297 301 303 303 302 298 303 296 291 304 304 306 306 306 306 307 307 307 308 309 311 312 312 313 313 314 313 313
297 297 297 298 298 298 299 300 300 300 300 300 301 302 303 303 305 302 299 294 296 296 292 296 299 301 305 307 308 306 309 310 313 312 312 311 309 303 302 306 310 305 304 306 309 305 301 296 300 298 292 302 301 294 300 294 295 301 293 299 300 299 305 301 301 301 296 297 303 305 305 306 307 307 306 307 307 307 308 311 312 313 314 314 314 314 313
297 297 297 297 298 298 299 299 300 300 300 300 301 300 300 301 304 304 301 301 301 299 292 292 299 308 307 306 303 305 307 307 308 310 311 311 310 310 310 312 310 313 309 308 307 302 299 297 295 295 296 296 305 297 297 301 299 302 298 300 303 303 302 295 302 299 302 303 303 303 305 305 305 306 307 309 309 308 308 309 310 311 311 312 313 314 312
297 297 297 298 298 298 299 299 300 300 300 300 300 302 303 304 306 303 302 303 300 295 296 293 299 303 305 303 305 307 307 307 309 308 309 310 309 310 310 309 307 308 307 306 306 300 300 298 297 298 301 299 303 303 302 300 300 295 296 302 304 301 298 302 298 295 295 297 302 304 297 296 305 306 307 308 308 308 309 309 309 310 310 311 311 310 311
297 297 297 298 298 298 299 299 299 299 300 300 301 303 305 304 305 305 305 305 303 293 293 294 297 301 306 303 306 306 306 305 306 308 308 309 310 310 310 309 309 307 306 303 297 298 298 297 299 297 297 303 301 296 303 303 302 300 300 302 303 301 304 301 296 295 294 302 303 307 307 306 307 309 309 309 309 308 308 308 309 310 311 311 310 309 309
297 297 297 298 298 298 299 299 299 300 300 300 301 302 306 306 306 305 305 306 305 301 299 299 302 303 295 300 306 306 307 306 306 307 306 305 305 307 308 308 308 308 308 303 299 299 298 298 298 300 300 304 302 297 300 294 294 293 300 304 304 306 306 306 305 304 304 305 305 307 306 305 306 306 308 308 309 308 308 309 310 310 310 310 310 309 308
297 297 297 298 298 298 299 299 299 299 299 300 300 300 299 303 307 306 306 305 305 304 296 293 291 294 305 305 305 304 303 304 305 306 304 304 306 307 306 307 306 306 306 300 300 297 298 298 297 303 303 305 301 298 294 297 294 299 303 304 305 305 305 306 306 304 304 305 306 307 306 306 305 305 305 306 306 307 308 308 309 309 309 310 310 309 309
298 297 298 298 298 298 299 299 299 299 299 299 298 293 292 292 302 307 304 307 308 303 297 296 294 298 298 307 305 302 301 301 305 304 305 305 305 305 305 307 306 305 300 300 300 298 298 297 297 299 302 302 298 297 297 296 293 298 302 303 304 304 304 305 306 306 306 306 305 305 305 305 305 303 304 305 305 306 307 307 307 307 308 309 309 310 309
297 297 298 298 298 298 299 299 299 299 300 298 295 297 301 301 304 306 305 305 306 303 297 293 293 294 293 298 305 305 301 302 302 304 303 305 304 305 305 305 304 306 300 299 297 298 297 296 296 302 302 301 297 298 299 297 293 296 302 303 304 304 305 305 305 305 305 305 304 303 303 303 304 305 304 305 305 306 306 307 308 308 305 308 309 310 310
297 297 298 298 298 298 299 299 300 299 299 300 302 301 301 301 301 302 303 304 304 302 303 295 290 293 292 297 303 304 300 304 303 303 300 303 303 304 301 304 305 303 303 300 297 295 299 296 296 297 300 303 295 296 298 293 297 303 303 303 303 304 304 305 305 305 305 305 306 303 303 304 304 303 305 305 305 305 306 306 306 307 307 307 306 306 307
297 297 298 298 298 299 299 299 299 299 300 298 296 300 306 303 304 301 306 306 304 305 299 294 290 291 291 301 297 302 302 298 298 299 293 301 302 304 298 302 302 296 299 299 298 297 298 296 296 295 299 295 298 294 291 297 302 302 303 303 304 304 304 304 304 303 304 304 305 305 304 306 305 305 305 304 304 305 306 306 306 305 305 305 304 305 306
297 297 297 298 299 299 299 299 300 301 300 301 302 305 305 302 301 302 304 305 299 294 293 294 294 290 290 291 290 297 302 301 297 298 294 298 302 299 300 296 295 294 296 303 296 296 294 295 299 293 292 299 292 289 291 297 300 302 303 302 303 304 303 302 302 304 303 304 304 304 304 304 303 303 303 303 303 304 304 304 306 305 303 303 303 304 305
297 297 298 299 299 299 299 300 301 302 299 300 301 302 301 301 303 307 307 307 303 298 292 291 292 290 290 287 288 294 303 299 300 301 298 295 298 300 300 296 291 294 299 296 293 298 293 300 295 291 294 289 288 292 297 300 300 302 303 303 304 304 304 304 304 303 303 304 304 304 303 304 303 303 303 303 303 304 304 303 303 303 302 302 302 303 303
297 298 299 298 299 301 299 297 301 302 299 299 300 300 300 301 308 307 305 302 305 306 297 294 291 293 295 292 294 295 300 291 299 296 298 294 292 294 295 293 290 292 292 293 293 292 296 301 293 289 290 288 290 298 298 300 300 301 302 304 304 305 304 304 304 303 302 303 303 303 303 303 302 302 302 302 302 303 302 301 302 301 300 301 301 301 302
298 298 297 296 297 293 293 296 300 300 299 299 298 300 302 302 296 297 297 297 302 300 296 298 291 297 299 295 289 302 298 295 300 292 293 295 292 291 293 292 291 291 287 289 293 299 294 293 291 289 289 296 298 298 300 301 302 304 305 305 304 304 304 304 303 303 302 300 300 301 301 301 301 302 302 301 301 301 301 302 302 302 302 302 302 302 301
297 297 296 296 293 292 293 297 300 299 299 301 302 297 294 296 294 290 292 295 294 293 297 296 293 298 297 295 295 303 298 293 293 295 290 296 291 288 292 287 290 291 288 288 292 297 289 290 290 290 289 294 295 302 302 302 302 303 305 305 305 305 304 304 305 304 303 302 303 304 303 301 301 301 302 301 301 302 302 302 302 302 302 302 301 301 300
295 292 290 290 291 293 297 301 299 299 300 296 298 295 290 294 290 288 294 291 291 294 297 292 299 298 298 295 294 295 303 297 291 291 292 293 297 290 291 291 291 289 284 285 288 298 289 285 288 288 288 293 295 301 302 302 302 303 305 305 305 305 305 304 305 306 306 304 305 305 305 305 304 303 302 302 301 300 300 301 302 303 302 301 300 299 299
292 291 292 289 293 295 296 298 300 299 295 293 292 291 291 288 292 292 291 289 289 291 298 299 299 297 299 299 298 294 302 302 301 299 294 290 296 295 290 287 291 287 285 285 291 292 290 288 288 287 288 293 297 301 302 302 303 303 305 305 305 305 305 305 305 305 304 304 304 304 305 304 304 304 304 304 302 302 302 302 302 302 300 299 298 299 300
294 292 293 295 295 296 296 295 294 292 293 294 289 286 289 290 292 290 291 287 288 291 294 296 292 295 295 298 299 300 298 303 300 295 292 289 291 290 288 289 290 285 283 289 293 291 289 284 285 287 292 296 299 301 302 302 303 303 304 305 304 305 304 304 304 304 305 304 304 304 304 304 304 304 304 304 303 303 303 302 301 301 301 301 301 300 300
297 297 296 294 293 292 292 290 293 292 286 286 285 284 288 285 287 288 288 292 294 293 294 298 297 299 299 299 298 300 297 300 294 293 291 289 292 290 289 287 286 283 287 293 290 287 285 284 284 289 295 297 299 300 302 304 304 304 305 305 305 305 305 304 304 304 305 305 304 304 304 304 305 304 304 304 304 303 303 302 301 301 301 300 300 301 300
296 295 291 289 287 289 291 283 292 289 286 288 285 281 284 284 287 289 287 289 292 292 296 294 295 295 291 297 297 293 294 296 294 293 292 291 290 287 286 284 285 290 294 289 287 284 285 286 288 291 294 297 298 300 303 304 304 304 304 305 305 305 305 304 304 303 303 304 304 305 304 304 304 304 304 303 302 301 301 301 301 301 300 299 298 297 298
290 289 289 288 286 289 287 280 291 287 283 285 287 286 287 284 287 290 289 291 295 293 295 296 296 295 292 299 296 296 294 292 294 290 287 290 287 288 286 285 289 290 286 284 285 286 286 285 292 294 295 295 297 299 303 304 304 304 304 304 304 304 304 303 303 303 303 303 303 303 303 303 303 303 302 302 301 302 301 300 300 299 300 300 299 297 297
287 286 286 284 279 285 286 282 285 283 288 289 288 290 291 292 292 291 293 295 294 295 294 295 295 295 293 296 292 292 294 293 290 289 290 290 286 285 289 291 289 285 284 285 283 282 284 289 292 294 296 296 298 300 303 304 304 305 304 303 303 304 304 303 304 303 303 303 303 303 303 303 303 302 302 302 301 300 300 300 301 301 300 299 299 298 298
288 288 288 287 282 287 289 284 285 288 289 291 292 292 292 292 293 293 294 295 294 295 295 296 295 295 293 293 293 293 293 293 289 289 291 286 285 287 289 287 283 284 281 281 282 284 287 291 294 297 297 297 299 302 303 304 304 304 304 305 304 304 304 304 304 303 303 304 303 303 303 303 302 303 303 301 301 300 299 300 301 302 301 300 299 298 297
284 288 288 282 281 285 284 287 292 291 292 292 291 292 293 294 293 292 294 295 295 295 295 295 293 294 292 296 295 291 292 292 289 288 290 288 289 286 284 283 283 285 285 284 285 289 292 294 296 297 298 298 301 302 303 303 304 304 304 304 304 304 303 303 303 303 303 303 302 302 302 302 302 302 301 302 301 301 301 301 301 301 301 299 298 298 297
288 286 284 284 287 287 288 292 291 289 290 292 292 293 293 292 291 292 294 295 295 294 295 294 292 291 290 293 291 290 288 291 286 286 288 287 284 280 280 279 282 281 286 288 289 292 294 296 299 298 298 299 301 303 303 304 304 304 304 304 303 303 303 303 304 303 303 303 303 302 302 302 302 302 302 302 301 301 301 301 300 300 300 299 298 299 299
286 285 286 285 286 288 291 292 291 289 290 291 292 291 292 292 292 293 295 294 295 295 295 293 293 291 291 290 287 288 288 291 289 289 287 284 285 285 285 282 284 284 287 291 292 294 296 298 299 299 300 300 301 303 303 304 302 304 304 305 304 303 303 304 304 304 303 303 303 303 303 302 302 301 301 301 302 302 302 301 301 301 301 301 301 300 299
288 286 287 291 287 287 289 285 286 286 288 290 290 290 291 291 291 291 294 294 295 293 292 289 290 289 289 287 286 283 286 291 288 287 286 286 288 286 284 283 287 289 292 295 296 297 297 299 299 299 300 300 302 304 304 304 304 304 305 304 304 304 303 304 304 304 303 303 303 297 302 302 302 303 303 303 302 301 301 300 300 301 301 300 300 300 299
285 283 284 288 290 290 290 291 290 289 290 291 290 292 292 291 292 292 295 294 293 290 288 290 289 288 285 284 286 289 290 288 286 287 285 288 289 286 286 289 293 295 295 296 296 298 299 300 300 300 301 301 302 304 305 304 304 304 304 304 304 303 303 304 304 303 303 303 303 303 303 303 303 303 302 302 301 300 299 299 299 301 301 301 300 300 300
Wind_Speed
22 22 22 22 23 22 21 20 21 18 19 10 8 7 5 3 4 4 4 3 4 5 8 7 4 5 5 8 9 8 7 5 4 5 4 4 4 3 4 4 5 1 6 14 10 11 8 11 8 9 11 10 7 18 20 18 18 14 11 12 8 2 7 8 10 10 11 4 4 10 11 12 15 15 13 13 13 14 11 9 5 8 8 7 3 3 3
22 22 22 22 23 23 22 21 21 19 17 11 8 6 4 4 6 2 5 5 3 3 6 5 4 6 5 5 9 8 8 6 5 4 2 2 3 3 4 5 3 3 2 10 12 11 7 7 10 9 11 7 5 22 22 23 15 14 11 9 12 6 8 9 10 9 9 9 9 10 13 12 12 12 13 13 12 13 12 8 2 6 12 12 9 9 4
22 22 22 23 23 22 21 21 21 21 20 15 6 4 4 5 4 6 3 4 5 4 2 3 7 7 7 8 11 7 4 5 7 6 3 3 4 3 4 3 2 3 4 5 11 10 4 8 7 7 12 5 5 17 23 23 16 14 12 7 11 5 8 9 11 13 13 14 15 15 15 15 10 12 14 16 15 15 12 9 7 7 6 12 9 5 6
23 23 22 23 23 23 22 21 20 20 19 16 7 3 4 1 5 1 4 5 5 5 6 5 6 8 7 7 3 2 4 2 4 4 4 4 3 4 4 2 3 6 8 8 10 8 8 8 7 9 9 6 6 14 22 22 16 17 12 12 12 4 8 10 9 10 9 8 7 7 10 11 13 14 15 16 16 15 13 8 9 9 5 8 9 7 7
23 22 23 23 23 23 21 21 20 22 21 17 5 4 3 3 3 4 4 2 6 6 5 5 4 3 2 5 4 4 3 2 3 1 1 4 2 1 1 2 5 8 10 10 10 10 9 7 11 11 10 6 9 17 19 19 17 12 10 13 10 6 7 13 4 2 1 4 7 7 14 15 16 14 15 14 15 16 15 11 10 8 7 8 9 9 8
22 23 22 23 23 22 22 22 20 22 22 19 5 4 2 3 1 3 2 4 5 8 3 4 8 9 5 2 2 6 7 9 6 2 3 3 0 1 3 1 1 5 10 11 6 12 10 10 7 10 8 11 14 13 16 16 14 13 13 14 9 8 6 9 8 2 3 2 4 6 10 14 15 16 15 17 17 17 17 14 13 9 8 4 8 11 12
22 22 21 22 23 23 22 22 21 21 22 16 5 4 3 3 4 3 6 4 6 7 13 15 10 10 3 4 3 7 10 10 8 4 3 1 3 4 3 5 1 3 4 5 9 10 9 7 10 8 11 12 14 11 13 12 11 16 12 14 8 6 6 11 10 5 4 4 3 5 10 10 13 17 17 16 17 18 17 16 15 11 8 6 4 9 12
22 22 22 22 22 22 21 22 23 21 22 10 3 4 4 4 4 4 5 6 9 10 8 8 7 4 9 4 8 7 8 10 8 6 6 3 5 5 5 6 2 4 5 3 8 5 3 9 6 8 12 13 10 11 9 9 13 14 12 10 5 8 6 7 9 7 7 4 3 4 7 9 13 15 16 17 17 17 18 16 16 15 13 6 5 6 7
21 20 22 23 22 22 22 23 22 21 21 4 4 1 1 2 3 5 7 8 5 8 8 7 6 4 7 6 8 7 9 9 7 7 6 7 5 5 5 4 2 4 5 5 5 4 3 2 7 10 12 8 10 9 8 12 13 15 11 10 8 9 3 6 7 5 8 6 4 4 5 8 13 15 15 14 14 16 16 14 14 12 11 12 10 9 9
22 22 22 21 21 22 21 20 21 20 19 7 5 4 2 3 3 3 4 4 5 8 9 7 6 5 7 7 9 7 9 7 6 2 3 4 4 1 2 6 1 6 6 4 5 6 4 1 2 1 3 1 10 4 11 14 12 11 10 10 9 10 5 6 6 6 6 7 5 5 6 7 8 12 14 15 13 13 8 7 6 12 12 11 9 10 8
22 21 21 20 20 21 21 21 20 20 14 10 7 5 6 3 4 2 2 4 2 7 7 7 7 5 8 10 9 7 7 6 4 4 2 3 0 3 3 5 2 6 4 4 6 4 3 1 1 2 1 4 7 3 10 17 15 13 11 9 8 13 8 6 8 6 6 8 5 5 6 8 5 3 6 5 12 12 11 11 11 11 12 7 7 6 5
21 20 21 21 20 20 20 19 19 19 15 10 10 8 5 5 5 2 2 5 5 5 6 4 6 6 9 9 8 7 6 6 4 2 3 4 5 4 3 2 2 3 4 5 3 2 3 2 3 5 5 6 5 4 9 13 14 14 11 11 10 12 10 5 7 6 6 8 5 4 6 5 5 1 2 3 4 2 9 5 7 11 10 3 4 6 10
21 21 21 20 21 20 20 20 20 19 18 12 9 9 6 6 4 3 2 3 4 9 8 9 8 7 10 10 8 8 6 3 1 1 1 2 3 4 5 2 3 6 5 5 3 5 6 8 8 8 9 7 8 7 6 8 10 10 12 13 10 8 9 4 5 5 2 5 6 7 5 5 2 2 2 4 2 2 2 6 8 9 12 11 11 8 7
20 21 21 21 21 21 20 20 20 20 20 16 10 9 7 5 4 3 2 4 7 5 7 7 10 13 13 10 9 7 4 5 3 2 3 3 3 5 4 4 3 5 5 4 3 7 6 8 7 8 8 6 4 4 5 5 4 9 9 9 11 12 9 7 5 3 4 7 9 4 5 2 4 2 6 9 6 10 10 7 11 14 13 13 10 8 9
20 21 21 21 21 21 21 21 21 20 20 19 10 8 7 6 5 3 3 3 6 8 4 8 11 13 12 8 9 6 6 5 2 3 3 3 4 5 4 4 2 2 3 4 4 5 6 5 7 6 6 6 5 4 6 5 4 2 6 8 8 11 11 8 6 4 4 7 8 7 4 6 5 5 5 11 3 5 2 3 4 10 13 13 11 12 12
21 21 21 21 21 20 21 21 20 20 20 20 10 8 6 6 6 4 4 4 5 5 5 7 9 9 8 8 7 7 5 3 4 1 3 4 7 6 4 4 4 4 3 3 1 3 4 6 6 6 6 6 5 6 3 7 6 5 3 5 7 7 9 9 10 4 6 6 9 9 9 5 1 7 7 9 2 4 3 3 7 10 15 15 13 14 15
20 21 21 21 21 21 21 20 20 20 19 19 11 8 6 6 6 4 4 3 2 5 10 9 6 7 7 6 6 6 6 3 6 3 3 6 6 3 1 2 4 4 8 1 2 2 4 4 6 4 4 1 5 3 7 5 7 7 7 6 10 10 7 5 8 7 7 7 7 9 6 3 4 6 6 10 3 4 4 5 5 8 14 15 14 15 17
20 20 21 21 20 21 21 20 20 20 19 17 12 9 7 5 5 6 3 4 4 5 4 4 6 7 7 6 6 5 2 2 1 1 0 4 3 6 5 5 3 3 8 3 3 1 3 3 4 5 4 3 3 3 3 5 7 7 10 11 8 8 8 7 10 9 8 10 7 5 5 3 3 5 9 9 6 4 5 7 2 5 11 13 14 16 17
20 20 21 21 20 20 20 20 20 20 20 19 13 9 4 6 6 5 5 4 4 4 4 2 3 5 6 5 7 7 4 4 4 3 1 1 4 5 6 2 3 3 6 2 3 2 1 2 0 1 3 3 3 1 2 4 4 3 8 10 10 8 5 7 8 9 10 9 9 8 3 4 6 6 9 8 6 5 7 2 2 2 9 9 10 11 14
20 20 21 21 20 20 20 20 20 19 19 20 13 9 9 8 4 5 5 5 4 8 11 9 6 7 3 4 5 4 4 1 2 4 5 4 2 4 4 2 4 1 2 2 1 2 1 2 2 1 1 5 2 2 1 2 1 2 7 8 6 8 7 9 10 6 6 7 10 8 11 3 10 13 6 1 3 0 3 2 2 1 7 9 8 8 10
20 20 20 21 20 20 20 20 20 19 19 19 16 9 9 3 4 6 5 5 5 8 3 4 1 6 5 8 11 10 9 6 7 6 6 5 4 3 1 2 5 4 2 3 2 2 2 1 2 2 2 3 3 3 1 2 4 2 2 3 3 3 7 6 7 8 7 7 8 5 1 6 13 11 2 8 2 4 2 1 3 2 6 8 8 8 11
20 20 20 21 21 20 20 20 20 20 20 19 18 9 8 5 6 5 5 5 6 7 5 10 10 12 13 12 12 12 12 11 8 6 6 3 2 4 3 1 3 3 2 2 3 2 1 2 1 0 2 3 2 0 1 3 3 5 3 1 5 4 3 3 3 7 6 3 1 5 2 5 8 3 4 5 3 2 2 3 3 5 5 6 6 10 12
21 20 20 21 21 21 20 20 20 19 20 19 16 9 10 10 7 7 6 6 7 10 12 12 10 10 10 11 13 12 11 8 8 7 6 5 1 1 1 2 4 3 1 2 5 4 3 3 1 3 1 2 1 2 3 3 1 4 3 2 3 2 2 1 4 1 3 2 1 1 1 4 5 2 4 3 2 1 2 1 2 3 4 6 6 10 12
20 20 20 20 21 21 21 20 20 19 20 19 15 10 10 8 9 8 6 6 4 7 4 6 5 3 7 8 3 6 6 7 9 8 5 6 2 1 3 3 3 3 2 1 3 4 3 2 3 3 1 3 3 2 2 2 0 2 2 4 3 2 2 3 3 3 3 4 5 2 3 2 5 5 2 1 1 1 1 1 1 2 4 5 5 9 11
20 21 21 21 21 21 21 21 21 20 20 21 18 11 9 8 4 4 5 3 2 3 3 3 1 4 6 6 4 2 4 3 4 6 7 8 8 4 3 4 5 4 3 3 2 4 2 2 3 2 1 3 4 1 4 3 3 1 3 3 4 5 3 3 3 2 5 1 3 2 1 1 2 5 5 4 3 3 1 0 1 2 4 4 7 9 11
20 21 21 21 21 22 22 21 21 20 20 22 19 11 8 7 5 4 5 6 5 4 3 4 3 3 4 7 4 6 4 3 4 6 8 9 9 8 6 2 3 2 3 2 3 3 2 2 1 1 2 2 2 3 1 4 2 1 4 3 5 5 4 2 4 5 2 2 2 2 2 4 6 8 7 2 2 3 3 2 3 5 7 7 8 9 11
21 21 21 21 21 22 22 22 22 21 22 22 15 10 9 7 6 6 4 4 7 2 2 4 7 9 7 11 4 5 3 2 2 4 6 8 8 7 6 6 5 4 4 3 1 2 2 1 2 0 2 2 1 2 2 2 2 1 2 4 4 4 6 3 2 4 4 3 3 5 3 2 6 8 9 9 4 2 3 4 5 6 8 9 11 10 11
21 22 22 21 22 22 22 23 22 22 22 23 15 9 8 6 3 5 6 5 4 4 6 7 8 10 12 6 2 6 4 5 3 3 2 3 5 5 6 6 5 4 3 3 2 2 2 2 2 1 0 2 3 2 1 1 2 4 6 3 5 5 1 3 4 4 2 5 3 1 4 2 5 3 4 7 6 5 6 6 7 7 8 9 12 12 12
21 21 22 22 21 22 22 22 22 21 22 20 11 10 5 3 2 3 5 4 4 5 6 8 10 8 3 6 9 5 2 4 3 2 1 1 2 3 3 3 4 2 1 2 1 0 0 2 1 1 2 3 4 1 2 2 2 1 3 4 3 2 3 4 5 4 4 3 4 2 2 2 5 2 2 4 4 4 5 5 5 7 8 9 10 12 13
21 22 22 22 22 22 22 21 21 20 20 12 8 5 4 3 2 2 3 3 3 5 4 5 5 1 5 4 4 6 6 5 3 1 1 1 1 1 1 1 1 0 2 1 1 0 1 1 1 2 2 2 3 1 2 1 2 2 4 2 1 2 1 2 2 4 3 4 3 1 1 2 3 2 2 2 2 1 2 4 5 6 7 8 10 10 11
22 23 23 23 23 23 22 21 20 20 17 8 5 3 3 3 4 2 3 2 2 4 3 3 5 5 4 1 3 7 9 6 1 0 0 0 1 1 2 1 2 2 1 1 0 2 1 1 1 2 2 2 2 2 2 3 2 2 4 2 2 3 3 1 0 1 2 1 2 2 2 2 2 2 3 2 3 2 1 2 3 3 6 8 8 9 9
23 24 24 23 23 22 23 21 20 17 10 8 7 4 4 4 4 2 2 4 5 5 3 5 4 2 3 2 1 3 5 4 2 3 2 2 1 2 3 2 3 4 3 1 1 1 1 2 1 1 1 3 2 3 3 3 3 1 5 3 2 1 1 1 2 2 1 2 4 4 3 2 3 2 2 5 4 3 2 3 4 5 6 7 7 8 10
24 25 25 24 23 24 24 23 22 15 11 12 15 20 20 19 17 14 8 6 4 4 3 3 3 2 2 4 4 1 3 3 2 2 2 2 1 1 1 1 2 3 2 2 0 1 1 0 0 1 3 1 1 2 4 3 1 4 3 3 2 2 2 2 2 2 3 3 2 3 2 1 5 3 2 4 4 3 4 5 6 7 8 9 9 10 11
25 25 25 24 24 26 24 24 23 17 12 7 6 5 2 7 1 8 5 5 4 3 2 2 2 3 4 3 3 4 4 4 1 4 0 3 1 3 1 2 1 0 3 2 2 1 1 1 0 1 1 2 0 2 3 2 3 3 3 3 3 3 3 3 3 4 3 2 1 3 2 3 6 4 4 4 5 4 4 5 7 9 10 9 10 11 12
25 26 25 26 26 25 26 20 8 6 5 5 3 4 6 5 10 2 5 4 4 2 2 2 2 4 3 2 1 3 3 4 1 3 2 2 1 2 1 1 1 1 2 2 1 1 0 1 3 2 1 2 1 2 3 2 3 4 4 4 4 4 4 4 4 3 3 1 0 2 3 5 6 6 5 5 5 6 7 7 9 9 10 10 11 12 13
26 26 26 27 29 21 7 4 4 4 5 2 3 6 11 14 8 3 5 6 5 4 3 2 1 4 3 4 2 2 4 2 0 2 0 1 2 1 2 2 1 2 1 2 1 1 0 2 2 1 2 2 2 2 3 3 1 3 5 5 6 5 3 1 4 5 3 2 2 3 4 4 4 5 5 5 5 6 6 7 9 10 10 11 12 12 13
25 26 27 24 12 4 4 1 2 2 4 5 10 14 15 9 2 3 3 4 5 4 5 3 4 5 4 3 2 0 4 1 3 2 2 1 2 1 2 1 2 1 1 2 0 0 2 0 2 3 2 1 2 2 2 2 2 2 5 4 5 3 2 2 6 6 6 5 4 4 4 4 5 5 5 5 5 6 8 9 10 11 11 12 12 12 13
24 23 11 6 4 3 2 2 2 5 11 10 7 4 4 4 2 3 2 3 3 3 3 4 6 5 1 3 3 3 3 1 1 2 1 1 1 1 0 1 2 1 1 1 3 2 1 1 1 2 1 1 2 3 3 3 3 1 2 4 5 4 3 5 7 7 7 6 5 5 5 5 5 5 5 5 6 8 8 8 9 9 10 11 11 12 12
17 8 4 3 3 2 2 4 6 12 9 4 3 2 2 2 2 2 3 2 2 3 3 4 5 4 5 6 5 2 3 3 3 2 1 3 1 1 0 1 2 1 0 2 2 2 2 2 1 2 2 2 1 3 1 1 1 2 2 3 5 4 4 6 7 7 6 3 3 7 7 7 7 7 5 6 7 7 8 9 9 10 11 11 11 12 12
7 6 4 4 2 3 6 6 8 8 3 2 2 2 2 3 4 2 2 2 2 1 2 4 4 4 5 6 5 1 3 4 2 2 2 1 1 2 1 1 1 1 1 1 2 1 2 1 0 2 0 3 3 3 1 1 2 4 3 4 5 4 4 5 6 3 1 4 3 4 5 4 4 6 6 7 8 9 9 9 10 10 10 10 11 12 12
6 6 5 3 6 6 7 11 7 3 2 2 2 2 1 2 3 0 1 4 3 1 2 3 2 4 4 4 4 3 3 1 1 2 2 1 1 2 2 0 0 2 1 1 1 1 1 1 1 2 2 4 3 2 2 2 4 4 4 5 5 4 5 5 4 3 2 2 1 4 3 3 5 6 6 8 9 9 10 10 10 10 10 12 12 12 11
9 9 9 11 11 11 9 4 2 2 1 2 1 3 3 0 1 2 2 3 3 2 5 4 3 3 2 2 2 3 1 1 2 1 2 1 1 1 1 0 1 2 1 2 1 1 1 1 1 0 2 3 3 2 3 4 5 6 7 6 5 5 5 5 4 4 3 2 2 4 4 4 6 6 6 7 8 9 10 10 10 11 12 12 12 11 12
15 12 7 5 3 2 2 2 3 1 2 2 2 2 2 3 3 4 4 2 1 2 2 1 3 2 0 2 3 4 1 1 2 2 2 0 1 1 1 0 1 1 1 1 1 1 2 1 1 1 4 3 1 3 4 4 5 6 7 6 5 5 5 4 4 3 2 1 3 4 5 5 6 6 6 7 7 9 9 8 10 10 10 11 9 11 12
7 4 3 2 2 1 2 1 1 2 2 1 3 4 5 5 4 3 2 2 3 3 1 2 1 4 1 3 2 2 2 3 2 2 0 0 2 1 1 2 0 2 0 2 1 2 1 1 2 4 4 2 1 4 5 5 6 6 6 6 5 5 5 4 3 3 3 2 3 3 3 5 6 6 6 6 8 9 8 8 9 10 11 10 9 9 9
4 2 2 2 2 1 1 1 2 2 4 4 3 3 3 6 5 5 2 2 2 2 2 1 2 3 2 3 2 1 1 0 2 2 1 1 1 1 2 1 1 1 1 2 1 1 1 2 2 1 1 2 1 5 7 6 7 7 7 7 7 7 6 5 4 4 4 4 4 5 5 5 6 7 6 6 7 7 9 9 10 10 10 10 11 11 10
2 3 3 2 2 2 2 1 1 4 2 0 2 2 3 1 2 4 4 1 2 0 1 2 2 2 2 0 2 1 1 1 2 1 0 1 2 0 1 0 1 2 1 2 2 1 1 2 2 3 4 3 1 5 8 7 7 6 8 8 8 7 6 5 4 4 4 4 5 5 5 5 6 6 6 7 7 7 7 8 10 10 10 10 11 12 13
3 1 2 1 2 1 1 2 2 1 2 1 2 2 2 3 3 4 3 2 2 3 3 2 3 3 3 0 1 2 2 1 2 1 1 2 1 2 0 1 1 1 1 2 2 2 1 2 2 3 3 2 2 6 8 8 7 7 8 8 9 8 6 6 5 5 5 5 5 5 5 6 6 6 7 7 7 7 8 9 10 10 10 10 11 11 11
3 1 2 2 2 1 3 1 1 1 1 2 2 2 2 1 1 2 3 3 3 3 3 3 3 3 4 2 2 2 0 1 1 2 0 0 1 1 1 1 2 1 1 2 2 0 2 2 3 4 2 1 3 7 8 8 8 9 8 8 9 8 7 7 6 5 5 6 6 6 6 6 6 7 7 7 8 8 8 9 9 9 9 10 11 12 12
2 2 2 2 1 1 1 1 2 3 3 2 1 1 0 2 1 3 4 3 3 3 3 3 2 2 2 1 2 2 3 2 3 2 2 2 2 2 2 2 2 3 3 3 2 3 3 3 3 2 1 1 4 7 8 8 9 9 8 8 8 7 7 7 6 6 5 5 5 6 6 6 6 7 8 8 8 8 8 9 10 9 9 11 12 12 12
3 2 2 3 3 2 2 1 3 3 4 3 2 1 1 1 1 3 4 5 4 3 1 1 1 2 1 0 2 1 2 3 2 1 2 3 3 1 2 3 3 3 1 3 2 2 2 3 2 2 1 2 5 7 8 8 8 8 8 8 7 6 7 7 6 6 6 5 5 6 7 6 6 6 7 8 7 8 8 9 10 9 10 10 12 12 13
1 2 2 3 3 0 1 4 5 5 5 4 1 2 3 2 3 4 5 5 6 3 3 1 0 1 2 2 1 2 1 1 2 4 3 3 2 2 4 4 3 3 2 1 1 2 3 3 3 3 1 3 5 7 7 8 9 9 8 8 7 6 7 7 7 6 6 4 5 6 7 7 6 6 6 6 7 8 8 8 8 8 9 9 10 10 11
2 3 2 2 3 4 3 2 2 3 2 1 1 2 2 2 3 4 5 6 5 3 0 0 1 1 2 3 1 1 1 1 2 1 3 2 1 3 3 4 4 1 1 2 1 0 1 1 2 2 1 2 5 6 7 7 8 8 9 8 7 7 7 7 7 6 6 5 6 6 5 5 6 6 6 7 8 8 8 7 8 8 8 8 9 11 11
Wind_Direction
349 349 348 347 346 347 350 350 350 354 345 341 345 311 279 297 288 88 164 177 242 276 276 269 241 244 274 306 285 269 260 246 275 284 277 250 212 235 242 175 163 183 170 152 157 159 150 166 169 159 162 158 181 163 182 173 171 179 158 158 139 342 193 157 175 170 189 139 175 204 229 214 209 214 220 208 210 203 217 220 205 200 180 196 180 234 112
349 349 347 347 347 348 348 348 347 347 349 336 317 293 290 288 287 230 147 171 191 267 277 295 283 285 284 261 272 275 274 285 292 258 244 251 179 238 174 150 312 116 257 160 157 160 133 179 161 168 174 145 123 169 179 178 179 186 166 171 156 182 190 180 156 168 175 192 191 210 212 220 218 210 209 220 214 205 217 239 224 209 212 204 207 220 166
349 349 347 346 348 348 348 346 343 341 340 343 309 293 305 285 255 247 167 167 180 236 262 275 286 290 298 299 293 308 283 253 260 271 281 245 254 254 124 72 107 153 173 173 157 163 160 151 165 157 177 111 179 171 182 180 180 198 168 189 160 220 167 196 177 180 180 189 195 196 192 203 209 221 208 211 213 205 201 209 193 225 209 206 212 206 79
350 350 349 348 346 348 349 348 344 338 340 342 303 290 288 297 315 132 210 169 205 240 256 258 256 282 294 301 318 273 272 277 219 227 248 241 253 288 334 271 234 150 155 149 153 148 157 156 160 166 158 111 163 176 181 182 183 187 171 184 168 219 180 207 204 199 202 202 203 190 186 185 208 205 217 207 212 214 213 217 228 224 206 227 207 226 132
350 350 350 349 349 348 347 348 346 343 343 350 316 289 255 312 271 332 325 270 206 236 229 248 230 261 345 303 343 319 312 228 116 188 360 91 332 324 266 83 158 154 169 155 151 154 146 129 150 153 139 131 140 167 176 182 181 124 147 186 177 195 190 203 245 292 237 207 174 156 188 196 201 202 207 210 206 213 213 214 226 215 228 221 210 192 165
349 350 350 349 349 351 350 349 348 346 344 344 313 307 307 299 44 325 11 306 322 323 327 297 286 264 211 271 262 309 11 46 38 146 165 280 11 292 120 187 55 186 169 162 140 160 150 140 131 138 131 124 141 156 175 185 143 148 181 184 189 190 192 177 212 162 80 68 108 167 197 207 200 207 207 208 207 210 213 214 222 217 211 230 161 177 209
349 350 350 351 350 353 353 350 349 348 344 338 340 350 334 303 320 294 14 318 292 290 289 300 306 321 356 220 296 355 23 40 29 9 9 83 59 340 78 52 116 189 222 210 152 166 152 134 143 142 142 138 151 154 165 185 171 182 177 181 194 209 194 172 196 161 153 94 125 167 207 207 215 212 212 212 211 213 214 213 215 212 209 238 150 194 205
350 351 353 352 351 353 353 350 351 347 343 332 30 43 341 3 336 326 324 263 281 292 307 323 333 358 6 3 27 3 21 35 28 39 8 60 50 5 47 356 344 134 176 256 169 132 87 142 140 127 135 141 165 151 172 162 185 187 179 172 166 240 130 143 176 180 163 133 130 190 210 211 215 217 218 215 212 213 214 218 218 216 226 229 206 197 207
350 351 352 353 352 352 355 355 352 346 345 351 32 336 99 305 266 303 315 317 309 332 342 339 333 354 18 8 18 5 19 24 20 54 24 32 46 22 3 333 13 101 146 135 87 34 12 129 137 144 142 153 157 160 176 167 169 182 174 187 161 231 128 185 183 207 178 179 192 188 205 214 222 216 211 211 212 215 210 215 212 211 211 213 226 227 225
349 351 353 353 352 354 353 353 350 347 340 353 334 324 203 207 246 298 297 294 309 336 340 350 356 29 359 346 351 350 357 13 5 80 71 61 68 66 275 320 286 117 148 107 19 352 334 334 319 266 8 95 146 176 164 173 170 171 179 174 182 196 175 184 187 207 182 155 184 178 189 194 214 225 215 210 212 222 213 201 188 209 217 215 210 223 232
347 350 351 353 353 351 352 354 353 351 344 355 344 324 337 327 323 320 286 290 327 352 335 3 14 11 335 342 333 336 344 10 20 28 78 355 283 173 298 333 354 125 92 12 343 315 296 349 214 201 155 135 146 144 169 175 177 177 174 168 188 185 204 190 185 209 175 160 164 174 198 206 213 57 10 220 209 193 194 199 202 208 208 230 230 238 172
345 347 349 352 352 352 351 352 353 352 351 339 330 323 334 327 309 276 315 330 323 337 342 334 347 311 331 344 349 349 357 3 24 30 33 14 335 337 324 274 255 88 26 327 319 137 145 185 147 148 140 111 113 137 172 175 176 185 181 184 175 184 192 206 176 213 185 162 180 202 218 208 47 143 71 47 56 188 220 221 219 208 202 180 178 160 165
345 347 348 350 351 352 352 352 353 353 351 346 327 330 332 325 298 299 315 310 323 342 346 330 322 350 11 7 2 7 18 21 360 37 159 301 295 275 238 278 9 32 326 320 305 185 182 152 154 158 140 119 100 109 156 179 170 188 192 188 179 182 194 179 190 220 145 180 198 212 202 62 158 86 150 90 61 173 163 246 217 206 203 204 214 200 186
345 346 347 348 349 351 351 351 352 352 351 350 332 335 328 338 328 316 320 322 316 319 318 315 7 5 357 359 8 351 30 48 84 129 124 163 283 281 251 229 314 308 298 304 252 184 152 155 148 162 158 157 141 119 119 135 164 194 192 194 196 187 190 186 184 202 201 204 201 202 44 196 149 165 191 185 173 176 183 207 218 200 200 195 194 164 157
344 345 345 346 347 349 350 351 351 351 350 350 338 334 334 347 337 309 314 285 309 306 328 0 343 341 340 5 10 4 37 30 58 104 124 114 230 253 350 5 287 257 265 276 159 183 170 157 157 165 159 180 180 142 149 156 133 102 208 206 204 202 201 185 203 182 245 205 203 200 203 229 200 199 123 177 18 179 181 293 208 172 186 189 180 165 156
342 343 343 344 345 346 347 349 351 350 351 351 344 339 327 346 327 295 295 301 312 328 20 346 329 327 330 350 13 17 19 18 4 270 119 106 46 87 79 325 302 276 266 242 81 148 153 171 151 168 169 174 145 144 168 141 141 154 199 206 204 210 233 203 206 177 197 223 224 208 219 223 82 144 137 163 133 185 206 233 228 174 178 180 179 166 162
340 340 342 343 343 344 345 347 349 350 349 354 343 337 325 351 338 328 316 293 245 261 298 319 327 296 294 23 25 34 11 21 358 19 57 53 37 21 81 258 249 318 5 337 50 151 160 148 164 143 98 31 162 162 125 148 136 148 154 194 202 203 207 211 222 207 197 216 219 220 218 201 109 122 139 152 146 139 213 224 209 148 174 173 176 170 165
339 338 340 342 342 341 342 343 346 348 349 351 342 331 318 344 340 326 278 285 300 290 283 323 335 333 9 357 338 8 324 11 52 270 298 68 42 22 11 13 17 53 331 27 346 105 103 131 146 161 147 47 342 259 171 146 150 157 171 183 183 195 204 209 221 214 194 212 224 237 208 114 102 115 136 142 162 207 218 222 82 135 168 178 181 178 170
337 337 337 340 340 339 340 340 344 345 347 349 344 331 326 342 322 328 308 276 286 284 332 351 335 305 305 306 272 285 286 342 326 324 37 134 38 346 322 80 292 32 4 24 355 36 88 102 232 329 157 149 234 100 129 188 139 147 163 176 184 192 201 204 222 221 213 202 226 225 224 80 112 126 141 152 162 195 221 72 11 183 169 176 185 179 173
335 337 335 337 339 338 338 338 341 343 344 349 347 326 310 312 323 331 317 306 296 287 287 274 211 241 232 287 308 0 29 133 357 335 19 38 44 304 252 172 126 268 146 345 82 12 313 89 40 294 190 136 94 351 187 76 333 151 182 178 202 181 187 195 199 212 226 205 219 216 221 155 162 130 137 241 233 54 52 88 73 149 156 165 170 181 164
333 335 333 334 336 336 336 336 338 340 342 344 345 327 323 328 316 320 303 280 294 304 302 108 258 278 260 249 255 272 277 301 337 357 2 346 4 296 47 49 21 14 32 342 23 70 345 78 100 64 4 326 112 238 81 93 156 85 336 213 220 118 220 202 201 204 211 201 215 222 27 101 158 162 179 185 49 37 26 346 124 162 161 165 166 172 168
329 332 332 331 334 335 334 334 336 337 339 341 339 323 305 322 321 314 302 290 254 244 270 314 306 280 264 253 254 252 259 268 282 302 307 324 12 5 57 14 39 32 52 317 263 154 160 68 205 219 138 125 202 269 32 212 182 130 157 256 213 143 260 353 249 155 229 241 169 66 52 140 150 50 54 22 67 16 17 347 87 154 158 173 171 167 164
328 329 330 329 331 332 332 332 333 334 335 339 338 327 311 311 315 329 299 274 255 256 268 273 270 260 251 242 236 242 247 255 269 260 251 285 320 131 12 97 108 65 95 274 337 350 3 294 38 350 54 14 10 142 195 293 53 145 189 149 356 46 15 293 278 99 77 116 76 351 123 183 177 154 29 24 34 87 335 348 124 112 157 173 178 163 171
326 326 328 328 329 329 329 330 331 332 333 334 333 316 308 307 309 315 296 248 260 309 262 202 267 26 3 355 9 186 220 230 234 242 237 240 291 91 120 70 85 176 175 82 354 319 4 334 17 316 313 72 288 240 222 183 181 87 192 175 183 116 184 207 234 84 193 206 152 186 89 136 183 191 150 40 205 44 360 17 14 106 151 170 166 170 171
325 324 326 326 327 326 326 327 329 330 330 331 328 309 288 281 282 314 305 325 317 327 323 324 353 12 342 325 297 209 205 244 216 221 210 216 236 287 5 44 2 343 358 358 274 257 241 269 200 211 223 76 298 286 76 270 131 329 243 144 180 164 175 245 223 193 223 61 97 107 130 223 210 215 204 208 146 137 153 283 36 132 150 157 157 170 161
323 322 323 324 325 324 324 325 327 328 328 328 325 313 305 292 299 287 264 258 254 280 310 331 360 347 317 332 9 2 341 261 231 218 219 221 229 253 286 260 246 178 281 281 270 262 275 247 294 322 284 114 293 297 37 29 12 35 287 47 30 78 165 236 170 221 153 110 178 143 191 216 210 207 223 217 140 155 153 181 171 161 155 152 154 164 155
321 320 321 322 323 322 323 323 325 327 328 327 322 306 292 290 284 237 232 332 310 237 254 311 321 317 347 327 336 328 330 326 239 219 220 227 236 233 238 250 264 257 250 210 195 279 246 278 266 345 7 55 293 350 344 206 260 238 245 120 154 187 220 133 206 228 227 250 149 158 218 212 178 197 204 202 190 203 169 170 180 174 164 159 158 156 164
320 319 320 320 321 321 321 321 323 325 327 324 311 301 289 281 263 229 235 264 317 323 311 303 307 316 310 263 322 324 349 336 314 244 220 222 229 238 242 243 245 250 223 207 202 200 227 232 93 67 150 104 239 162 214 360 277 250 252 180 181 238 226 206 233 246 216 73 62 293 319 343 55 53 164 184 173 189 196 193 187 182 173 168 160 156 162
318 317 318 319 318 318 318 319 320 322 326 324 310 298 246 236 239 215 226 238 283 298 291 279 275 268 318 352 319 319 37 336 338 270 234 210 195 213 233 244 242 252 197 237 302 314 4 60 26 334 50 29 292 142 183 211 213 261 66 98 184 42 351 308 1 2 83 43 32 319 279 324 47 47 140 165 163 194 203 195 182 179 174 173 170 166 162
317 317 317 317 315 315 316 316 316 318 325 321 312 274 242 166 163 201 186 232 269 313 303 333 325 3 344 289 318 337 353 12 31 119 188 198 199 232 56 164 174 230 264 293 280 170 67 74 87 93 95 301 288 15 256 302 288 88 98 141 129 190 274 306 323 308 14 30 357 9 350 48 60 87 127 119 121 215 208 182 175 171 173 178 175 170 168
317 316 315 314 313 313 312 312 312 315 316 306 300 265 237 213 120 83 148 202 282 304 296 272 280 299 291 159 270 333 346 355 12 18 107 329 78 86 104 229 111 254 239 179 224 73 234 147 145 115 138 42 320 266 289 282 260 122 122 140 167 192 208 201 98 291 320 40 97 120 85 81 94 125 124 139 140 154 149 138 134 176 161 175 175 169 169
316 315 314 313 311 311 308 307 308 308 298 275 245 268 18 19 21 44 89 332 311 269 273 307 307 299 339 290 350 349 318 331 266 208 171 255 154 83 72 1 52 21 4 58 76 206 60 43 333 118 202 87 276 273 269 260 263 81 121 153 146 170 163 198 184 160 157 155 165 158 177 158 201 306 65 138 145 150 160 151 161 156 153 175 169 179 177
316 314 313 312 310 308 306 303 302 299 284 280 288 296 290 277 259 255 259 288 271 257 285 285 293 312 277 6 323 103 332 264 217 257 126 16 25 259 162 156 147 111 60 239 96 37 59 310 146 196 93 169 250 265 270 262 360 87 111 120 135 146 150 135 144 150 164 166 290 310 352 224 159 127 100 128 141 147 157 163 159 154 173 178 171 172 176
315 314 312 311 308 305 303 302 298 289 265 249 248 219 102 32 259 204 221 222 266 288 259 272 290 299 303 311 265 98 337 335 64 340 56 95 6 266 49 183 126 186 29 336 93 193 141 246 317 38 156 188 239 281 262 257 93 129 140 140 132 146 147 158 167 168 160 165 279 339 338 67 109 115 134 138 138 141 158 153 157 170 179 175 171 173 172
315 314 312 309 306 304 302 298 282 212 204 207 230 123 157 14 3 257 218 243 257 206 210 226 246 291 303 309 294 85 356 285 9 25 325 83 312 330 338 252 130 268 80 319 195 6 73 51 356 258 192 109 230 244 259 237 149 160 165 160 161 160 167 175 178 169 156 157 147 71 120 138 138 141 145 147 146 157 164 175 187 185 175 175 172 171 170
315 313 311 308 304 300 286 210 223 209 203 167 86 25 340 325 310 268 224 237 273 310 281 286 258 281 307 306 341 58 318 272 278 249 152 320 190 143 294 294 138 78 323 296 356 190 93 52 269 248 102 246 247 286 8 16 308 189 196 185 170 191 182 255 154 152 132 120 106 114 139 154 150 137 138 147 168 173 182 183 178 180 178 174 172 170 171
314 313 308 302 290 207 216 158 111 358 29 334 303 301 291 289 187 171 168 204 209 239 278 296 274 270 269 304 312 278 316 326 19 296 136 293 6 45 279 250 56 70 218 199 126 15 81 50 276 268 229 274 28 19 343 308 298 241 200 184 169 173 155 142 143 147 138 132 137 154 163 158 146 153 155 164 178 177 176 180 179 178 178 175 170 171 165
311 303 303 307 274 234 179 136 71 2 320 293 279 255 170 201 205 181 185 215 165 189 222 235 255 269 266 256 260 69 298 340 340 315 138 63 259 143 344 324 54 265 235 80 81 25 319 223 256 318 308 336 315 283 269 255 247 263 193 179 171 170 162 146 160 164 152 152 168 172 175 179 174 163 184 182 181 179 180 176 176 178 174 171 172 164 145
296 305 294 293 290 320 22 33 354 322 300 245 233 236 192 192 215 209 200 160 153 215 199 225 250 238 240 240 255 136 304 318 298 247 291 79 306 122 285 280 112 262 246 192 135 253 250 171 180 240 230 129 261 104 98 238 228 202 173 165 161 163 174 174 181 185 192 227 221 188 196 188 184 176 190 180 179 179 175 176 175 173 171 165 152 144 137
342 335 336 321 322 3 329 326 331 307 249 215 184 239 204 179 209 201 143 190 204 190 169 227 234 254 246 261 285 230 136 242 290 341 358 108 67 333 63 281 89 266 298 4 79 271 301 319 86 255 152 54 51 105 138 162 184 157 161 152 157 164 182 181 183 190 290 349 322 208 201 215 196 187 185 177 176 174 175 177 173 168 165 149 135 142 145
346 333 316 316 329 318 318 320 310 244 237 201 173 219 247 194 228 304 197 221 238 162 198 268 166 215 188 236 242 256 113 272 306 315 285 310 69 262 256 324 72 278 261 57 93 248 259 271 255 281 41 32 35 101 124 151 149 148 148 155 158 167 178 183 188 194 244 282 193 163 175 186 178 182 188 172 174 175 174 171 170 165 150 142 146 148 141
325 308 298 294 291 287 295 268 242 218 209 257 219 200 203 228 140 210 238 238 201 189 168 202 224 244 147 198 236 278 140 55 309 256 265 218 122 297 10 93 172 280 360 64 5 242 265 277 281 124 66 59 99 145 166 161 155 159 157 160 164 174 180 189 192 199 239 254 204 168 163 173 175 173 182 177 169 172 171 165 162 159 158 155 154 153 151
292 277 291 286 293 264 253 252 174 238 196 172 205 197 185 216 199 209 193 202 21 259 100 256 302 317 46 258 225 225 302 93 254 207 245 359 111 236 260 203 244 256 65 112 258 279 276 269 272 43 38 51 97 177 183 168 161 162 160 166 170 177 187 190 205 201 216 232 174 169 166 171 171 167 171 177 170 165 163 157 154 150 148 148 153 157 152
312 290 244 218 278 231 211 203 147 207 228 228 188 199 186 204 191 187 218 156 148 195 69 254 119 281 184 152 297 135 184 189 220 258 237 101 250 192 203 238 14 59 136 226 237 272 330 335 302 342 0 6 196 191 177 167 168 159 160 167 170 173 184 179 179 184 167 151 138 149 162 162 157 151 165 164 164 160 151 146 146 147 149 151 145 140 135
310 260 233 232 241 165 153 316 203 219 220 194 218 235 184 211 200 203 188 61 294 61 73 255 305 283 287 94 230 225 275 277 130 247 174 197 224 213 261 348 62 221 268 287 290 268 228 249 165 188 34 343 225 189 178 178 176 179 169 165 171 178 183 185 186 190 176 173 157 160 162 158 162 162 161 160 162 161 155 150 150 151 157 157 148 145 145
307 315 319 286 313 266 243 252 150 211 203 259 225 279 248 25 32 93 66 352 318 311 288 10 288 261 265 118 297 47 166 234 215 184 328 227 262 230 70 20 265 274 265 255 262 290 335 351 4 7 35 3 253 179 177 177 177 175 170 177 173 180 181 185 189 193 182 169 160 173 164 166 168 166 159 157 156 159 164 158 161 163 161 158 158 154 156
255 233 259 298 289 220 231 241 187 18 2 9 25 360 14 44 45 45 45 349 325 357 316 289 278 299 291 151 226 199 210 234 247 102 247 229 219 87 289 270 243 217 242 262 261 273 298 34 2 28 34 21 184 174 176 173 177 180 189 184 176 179 176 183 181 195 178 166 162 168 167 168 168 170 160 159 161 162 160 164 169 169 164 160 151 148 153
289 325 289 239 214 233 204 160 38 134 90 23 51 31 36 318 238 115 54 3 333 303 298 284 226 183 216 169 260 280 76 190 235 168 278 349 100 225 183 214 242 229 244 265 254 338 340 350 360 18 21 351 195 177 177 178 180 186 186 184 185 181 180 180 182 185 180 172 168 170 167 166 166 167 170 164 160 163 164 165 163 162 152 146 150 157 159
308 302 266 288 309 280 237 66 244 175 123 116 62 28 136 213 101 55 15 339 315 327 324 283 328 306 245 127 247 219 223 167 231 172 148 212 223 191 192 217 205 247 205 228 287 348 333 350 36 15 298 215 192 186 179 180 181 184 186 185 183 185 185 183 180 180 183 179 172 169 171 165 166 166 168 164 164 160 165 162 162 162 160 158 160 163 165
235 215 221 243 236 210 239 244 254 202 157 152 173 114 17 326 60 66 2 332 334 302 203 206 234 260 336 256 226 214 244 189 224 146 207 211 204 190 221 248 207 251 253 156 235 284 314 347 351 313 233 196 182 184 175 176 178 185 182 183 181 186 187 181 176 176 188 183 177 171 163 165 174 170 167 171 163 151 159 164 168 168 168 165 164 166 169
209 271 269 287 278 194 122 215 203 201 195 187 146 50 2 3 16 14 14 322 310 291 232 246 86 251 226 203 245 223 190 84 225 212 221 217 177 203 218 240 241 223 274 35 338 328 329 344 334 325 176 185 180 182 176 173 176 183 180 182 181 185 177 181 179 178 181 174 163 160 173 179 177 168 162 156 148 156 159 162 168 168 161 163 165 163 162
229 233 237 191 230 263 273 304 303 275 302 352 342 59 351 333 10 353 343 310 300 280 10 40 256 221 226 224 226 358 9 228 242 204 226 215 174 231 229 246 276 330 354 285 245 208 327 6 22 302 272 165 171 178 173 172 177 180 180 179 178 178 175 176 178 176 171 168 174 177 170 161 153 147 143 147 152 160 164 163 167 166 165 167 171 173 172